GW5682 Weather Reports


Display with metric or nautical units.
time (UTC)temp
F
wind
direction
speed
MPH
gust
MPH
rain 1hr
in
rain 24hr
in
rain mn
in
humidity
%
barometer
mb
20260906221649 100 315 3.0 5.0 0.00 0.00 0.00 31 1013.8
20260906220625 101 45 2.0 3.0 0.00 0.00 0.00 31 1013.6
20260906215709 100 225 1.0 2.0 0.00 0.00 0.00 31 1013.7
20260906214626 100 45 1.0 3.0 0.00 0.00 0.00 31 1013.8
20260906213649 101 135 6.0 7.0 0.00 0.00 0.00 31 1013.7
20260906212625 101 180 2.0 3.0 0.00 0.00 0.00 31 1013.9
20260906211649 100 180 3.0 4.0 0.00 0.00 0.00 32 1013.9
20260906210625 100 180 3.0 4.0 0.00 0.00 0.00 31 1014.3
20260906205649 100 135 5.0 7.0 0.00 0.00 0.00 31 1014.3
20260906204625 101 180 5.0 7.0 0.00 0.00 0.00 31 1014.5
20260906203649 100 90 3.0 4.0 0.00 0.00 0.00 32 1014.3
20260906202625 100 135 1.0 3.0 0.00 0.00 0.00 32 1014.8
20260906201649 100 45 1.0 3.0 0.00 0.00 0.00 33 1014.8
20260906200625 100 23 4.0 5.0 0.00 0.00 0.00 32 1014.9
20260906195113 98 68 3.0 5.0 0.00 0.00 0.00 36 1015.0
20260906194603 100 45 4.0 5.0 0.00 0.00 0.00 32 1014.9
20260906193123 100 135 4.0 7.0 0.00 0.00 0.00 32 1015.1
20260906192103 100 90 3.0 4.0 0.00 0.00 0.00 32 1015.2
20260906191103 100 180 4.0 6.0 0.00 0.00 0.00 33 1015.3
20260906190124 100 45 4.0 6.0 0.00 0.00 0.00 33 1015.3
20260906185104 99 90 3.0 3.0 0.00 0.00 0.00 38 1015.4
20260906184103 99 90 5.0 7.0 0.00 0.00 0.00 39 1015.8
20260906183103 98 135 4.0 5.0 0.00 0.00 0.00 40 1015.7
20260906182100 98 135 5.0 7.0 0.00 0.00 0.00 40 1015.9
20260906180626 96 90 6.0 7.0 0.00 0.00 0.00 41 1016.1
20260906175649 97 45 5.0 7.0 0.00 0.00 0.00 41 1016.2
20260906174625 96 90 4.0 7.0 0.00 0.00 0.00 41 1016.5
20260906173650 97 270 2.0 3.0 0.00 0.00 0.00 41 1016.5
20260906172626 96 135 1.0 2.0 0.00 0.00 0.00 45 1016.6
20260906171709 96 90 2.0 3.0 0.00 0.00 0.00 44 1016.8
20260906170625 96 45 3.0 3.0 0.00 0.00 0.00 44 1016.9
20260906165650 95 135 3.0 3.0 0.00 0.00 0.00 45 1017.1
20260906164646 94 225 3.0 5.0 0.00 0.00 0.00 48 1017.0
20260906163650 94 68 3.0 5.0 0.00 0.00 0.00 49 1017.2
20260906162625 93 90 3.0 5.0 0.00 0.00 0.00 48 1017.0
20260906161649 93 90 5.0 5.0 0.00 0.00 0.00 48 1016.9
20260906160625 92 135 3.0 3.0 0.00 0.00 0.00 51 1016.7
20260906155709 91 135 5.0 7.0 0.00 0.00 0.00 51 1017.0
20260906154713 90 90 2.0 3.0 0.00 0.00 0.00 61 1016.9
20260906153650 89 45 3.0 3.0 0.00 0.00 0.00 61 1016.9
20260906152625 89 135 1.0 3.0 0.00 0.00 0.00 65 1016.8
20260906151649 88 135 1.0 1.0 0.00 0.00 0.00 65 1016.8
20260906150626 88 90 1.0 3.0 0.00 0.00 0.00 67 1016.9
20260906145649 87 0.0 1.0 0.00 0.00 0.00 70 1016.6
20260906144626 85 90 1.0 2.0 0.00 0.00 0.00 71 1016.9
20260906143649 85 90 1.0 2.0 0.00 0.00 0.00 72 1016.7
20260906142626 84 135 3.0 3.0 0.00 0.00 0.00 73 1016.8
20260906141649 83 90 2.0 3.0 0.00 0.00 0.00 74 1016.8
20260906140226 82 135 1.0 1.0 0.00 0.00 0.00 79 1016.8
20260906135113 81 90 1.0 2.0 0.00 0.00 0.00 85 1016.8
20260906134138 80 225 1.0 2.0 0.00 0.00 0.00 88 1016.7
20260906133113 79 135 1.0 2.0 0.00 0.00 0.00 93 1016.6
20260906132138 78 90 1.0 1.0 0.00 0.00 0.00 97 1016.9
20260906131113 76 0.0 1.0 0.00 0.00 0.00 99 1016.7
20260906130218 75 0.0 1.0 0.00 0.00 0.00 99 1016.5
20260906125113 74 0.0 0.0 0.00 0.00 0.00 98 1016.5
20260906123758 74 0.0 0.0 0.00 0.00 0.00 97 1016.4
20260906122625 74 0.0 0.0 0.00 0.00 0.00 96 1016.5
20260906121650 73 0.0 0.0 0.00 0.00 0.00 95 1016.3
20260906120646 74 0.0 0.0 0.00 0.00 0.00 96 1016.2
20260906115649 74 0.0 0.0 0.00 0.00 0.00 95 1016.0
20260906114225 74 0.0 0.0 0.00 0.00 0.00 95 1015.9
20260906113114 74 0.0 0.0 0.00 0.00 0.00 95 1015.8
20260906112137 74 0.0 0.0 0.00 0.00 0.00 95 1015.8
20260906111114 74 0.0 0.0 0.00 0.00 0.00 95 1015.8
20260906105737 74 0.0 0.0 0.00 0.00 0.00 94 1015.8
20260906104625 74 0.0 0.0 0.00 0.00 0.00 94 1015.5
20260906103649 74 0.0 0.0 0.00 0.00 0.00 94 1015.7
20260906102625 74 0.0 0.0 0.00 0.00 0.00 93 1015.6
20260906101649 74 0.0 0.0 0.00 0.00 0.00 93 1015.4
20260906100625 75 0.0 0.0 0.00 0.00 0.00 91 1015.4
20260906095649 75 0.0 0.0 0.00 0.00 0.00 91 1015.3
20260906094604 75 0.0 0.0 0.00 0.00 0.00 91 1015.4
20260906093603 75 0.0 0.0 0.00 0.00 0.00 91 1015.2
20260906092623 75 0.0 0.0 0.00 0.00 0.00 90 1015.1
20260906091203 75 0.0 0.0 0.00 0.00 0.00 90 1014.9
20260906085818 75 0.0 0.0 0.00 0.00 0.00 88 1014.9
20260906084645 75 0.0 0.0 0.00 0.00 0.00 87 1014.8
20260906083649 76 0.0 0.0 0.00 0.00 0.00 86 1014.9
20260906082645 76 0.0 1.0 0.00 0.00 0.00 85 1014.8
20260906081650 76 0.0 0.0 0.00 0.00 0.00 84 1014.9
20260906080626 76 0.0 0.0 0.00 0.00 0.00 83 1014.9
20260906075203 76 0.0 0.0 0.00 0.00 0.00 83 1015.1
20260906074103 77 0.0 0.0 0.00 0.00 0.00 82 1015.0
20260906073103 77 0.0 0.0 0.00 0.00 0.00 81 1014.9
20260906072103 77 0.0 0.0 0.00 0.00 0.00 81 1014.9
20260906071123 78 0.0 0.0 0.00 0.00 0.00 80 1015.0
20260906070103 78 0.0 0.0 0.00 0.00 0.00 80 1015.2
20260906065123 78 45 1.0 1.0 0.00 0.00 0.00 80 1015.1
20260906064103 78 0.0 1.0 0.00 0.00 0.00 78 1015.3
20260906063103 78 0.0 1.0 0.00 0.00 0.00 78 1015.3
20260906062123 78 0.0 0.0 0.00 0.00 0.00 78 1015.1
20260906061103 78 0.0 1.0 0.00 0.00 0.00 77 1015.1
20260906060103 78 135 2.0 3.0 0.00 0.00 0.00 77 1015.3
20260906055103 79 0.0 1.0 0.00 0.00 0.00 76 1015.4
20260906054103 79 0.0 1.0 0.00 0.00 0.00 76 1015.3
20260906053144 79 0.0 0.0 0.00 0.00 0.00 76 1015.4
20260906052123 79 0.0 0.0 0.00 0.00 0.00 75 1015.2
20260906051103 80 90 1.0 1.0 0.00 0.00 0.00 75 1015.2
20260906045103 80 90 1.0 2.0 0.00 0.00 0.00 75 1015.0
20260906044103 80 0.0 0.0 0.00 0.00 0.00 74 1015.3
20260906043103 80 0.0 0.0 0.00 0.00 0.00 74 1015.3
20260906042144 80 0.0 0.0 0.00 0.00 0.00 73 1015.3
20260906041103 81 0.0 0.0 0.00 0.00 0.00 72 1015.1
20260906035103 81 0.0 0.0 0.00 0.00 0.00 71 1015.3
20260906034103 82 0.0 0.0 0.00 0.00 0.00 67 1015.2
20260906033123 82 0.0 0.0 0.00 0.00 0.00 65 1015.2
20260906032103 83 90 1.0 1.0 0.00 0.00 0.00 64 1015.2
20260906031103 83 0.0 0.0 0.00 0.00 0.00 64 1015.2
20260906025103 84 90 1.0 1.0 0.00 0.00 0.00 62 1015.2
20260906024144 84 135 1.0 2.0 0.00 0.00 0.00 62 1015.0
20260906023103 84 180 1.0 2.0 0.00 0.00 0.00 61 1014.7
20260906022103 85 0.0 1.0 0.00 0.00 0.00 60 1014.8
20260906021103 85 90 1.0 2.0 0.00 0.00 0.00 60 1014.6
20260906015103 86 0.0 0.0 0.00 0.00 0.00 58 1014.3
20260906014103 86 90 1.0 1.0 0.00 0.00 0.00 57 1014.3
20260906013103 87 225 1.0 3.0 0.00 0.00 0.00 57 1014.3
20260906012103 88 45 1.0 2.0 0.00 0.00 0.00 55 1014.2
20260906011103 89 45 2.0 4.0 0.00 0.00 0.00 54 1013.9
20260906010103 90 135 2.0 3.0 0.00 0.00 0.00 52 1013.7
20260906005103 91 90 3.0 4.0 0.00 0.00 0.00 47 1013.6
20260906004103 92 135 4.0 7.0 0.00 0.00 0.00 45 1013.4
20260906003103 93 0.0 1.0 0.00 0.00 0.00 41 1013.4
20260906002103 94 0.0 1.0 0.00 0.00 0.00 40 1013.5
20260906001103 95 90 1.0 1.0 0.00 0.00 0.00 40 1013.5
20260905235103 97 0.0 0.0 0.00 0.00 0.00 37 1013.4
20260905234103 98 90 1.0 1.0 0.00 0.00 0.00 36 1013.1
20260905233103 98 315 1.0 1.0 0.00 0.00 0.00 36 1013.1
20260905232103 98 45 2.0 3.0 0.00 0.00 0.00 36 1013.1
20260905231103 99 90 2.0 3.0 0.00 0.00 0.00 34 1013.2
20260905225103 99 315 3.0 4.0 0.00 0.00 0.00 34 1013.2
20260905224103 99 90 2.0 3.0 0.00 0.00 0.00 34 1013.2
20260905223103 100 45 4.0 5.0 0.00 0.00 0.00 31 1013.2